TIME,DELAY(SENSOR),PRES,T(CTD),SAL,OXYGEN,RAWTEMP,T(OPTODE),TCPHASE,FLUOR,BETA(BETA700),BETA(BETA412),BETA(BETA440),CDOM,C(CSC),ED(ED411.90),ED(ED443.80),ED(ED489.40),ED(ED554.70),LU(LU412.20),LU(LU443.80),LU(LU489.40),LU(LU555.00),COMP,TILTX,TILTX(TILTY),CHECK
1345130073,5805,496.8399963378906000,16.9127998352050780,36.3476982116699200,219.0415954589843800,191.2135009765625000,16.9132003784179700,32.0293998718261700,50,101,98,79,68,14013,2146949933,2147512832,2147271387,2147466669,2147083968,2146949814,2147654464,2147123273,105,-2,8,27772
1345130202,5807,485.9200134277344000,17.0788002014160160,36.3811988830566400,222.3339996337890600,185.7303009033203000,17.0785198211669920,31.7811107635498050,50,102,99,80,69,14012,2146954889,2147513590,2147270893,2147468608,2147085366,2146952813,2147660708,2147120320,637,-2,8,27825
1345130329,5807,475.2099914550781000,17.2332000732421880,36.4156990051269500,228.7104034423828000,180.3538970947265600,17.2406597137451170,31.3820590972900400,51,102,98,81,67,14010,2146954614,2147514148,2147272758,2147467940,2147085933,2146961161,2147656649,2147121956,771,-2,8,39139
1345130458,5807,464.1000061035156000,17.3542003631591800,36.4387016296386700,230.8491058349609400,176.6170959472656200,17.3533706665039060,31.2245407104492200,50,103,99,81,67,14006,2146955510,2147514029,2147269540,2147465828,2147085513,2146953462,2147659757,2147119232,682,-2,8,13428
1345130585,5806,452.5400085449219000,17.4230995178222660,36.4514999389648440,230.1902008056640600,174.4156036376953000,17.4197807312011720,31.2275505065917970,50,101,98,81,68,14011,2146954203,2147513069,2147269851,2147465526,2147081700,2146958308,2147654656,2147122962,610,-2,8,17005
1345130712,5806,440.4400024414062500,17.5424995422363280,36.4728012084960940,231.4140014648437500,170.4933929443359400,17.5381202697753900,31.1136207580566400,50,101,98,80,66,14011,2146951990,2147512320,2147266742,2147463945,2147085924,2146953545,2147653997,2147120612,982,-2,8,53688
1345130829,5805,428.8800048828125000,17.6165008544921880,36.4874992370605500,232.5812988281250000,167.8775024414062500,17.6170597076416000,31.0210609436035160,50,101,97,81,68,14012,2146952429,2147515181,2147265993,2147464475,2147087981,2146953252,2147653284,2147118948,873,-2,8,21575
1345130944,5804,417.2500000000000000,17.6895008087158200,36.5017013549804700,233.9727935791015600,165.3795013427734400,17.6924495697021500,30.9193096160888670,50,102,98,80,66,14012,2146952731,2147513700,2147269266,2147464182,2147087323,2146955894,2147655881,2147116681,840,-2,8,12818
1345131059,5804,405.5700073242187500,17.7495994567871100,36.5122985839843750,234.8793945312500000,163.6356964111328000,17.7450809478759770,30.8520603179931640,50,106,98,80,67,14008,2146951881,2147512000,2147266514,2147465636,2147086226,2146960877,2147653568,2147116992,1163,-2,8,10303
1345131177,5806,395.1099853515625000,17.7901992797851560,36.5196990966796900,235.5426025390625000,162.2720031738281200,17.7862491607666000,30.8019905090332030,50,102,99,79,66,14010,2146951707,2147513901,2147267117,2147463094,2147088118,2146957769,2147655405,2147115492,1486,-2,8,60710
1345131340,5805,383.9299926757812500,17.8309993743896500,36.5261993408203100,235.8825073242187500,161.0144042968750000,17.8242092132568360,30.7686004638671880,50,102,99,81,67,14013,2146955300,2147513636,2147265746,2147463213,2147086070,2146955785,2147651958,2147114971,1174,-2,9,50921
1345131496,5806,371.7999877929687500,17.8780002593994140,36.5320014953613300,235.9066009521484400,159.3132934570312500,17.8755702972412100,30.7447490692138670,50,101,97,81,67,14011,2146954258,2147513234,2147266112,2147463158,2147088685,2146956608,2147655963,2147119899,1472,-2,8,52665
1345131611,5805,361.5199890136719000,17.9323005676269530,36.5427017211914060,235.7071990966797000,157.5157012939453000,17.9298496246337900,30.7302703857421880,50,102,97,142,67,14010,2146953462,2147515318,2147266788,2147458770,2147084534,2146951104,2147652955,2147112192,1217,-2,8,768
1345131740,5803,350.6099853515625000,17.9948997497558600,36.5550994873046900,237.5469970703125000,155.5222015380859400,17.9900398254394530,30.6157398223876950,50,101,97,80,67,14006,2146953993,2147512292,2147268672,2147462098,2147087113,2146962715,2147652589,2147119213,1310,-2,8,58607
1345131879,5807,339.6000061035156000,18.0249004364013670,36.5578994750976560,237.5635070800781200,154.5149993896484400,18.0204601287841800,30.6013603210449220,51,101,98,81,67,14011,2146953536,2147507126,2147270601,2147460873,2147084854,2146953142,2147651328,2147116178,675,-2,8,35726
1345132063,5805,325.2600097656250000,18.0853004455566400,36.5644989013671900,236.0151977539062500,152.3466033935547000,18.0859508514404300,30.6462497711181640,51,100,98,80,67,14010,2146954249,2147513718,2147270354,2147463616,2147086162,2146955675,2147658925,2147120868,896,-2,8,51167
1345132178,5806,314.4700012207031000,18.1476001739501950,36.5719985961914060,235.3829040527343800,150.3825073242187500,18.1452808380126950,30.6502799987792970,50,101,97,79,67,14006,2146954203,2147511488,2147270994,2147462180,2147087268,2146959552,2147651492,2147114998,989,-2,8,53948
1345132293,5806,303.2200012207031000,18.2049999237060550,36.5789985656738300,235.2655029296875000,148.3032073974609400,18.2080993652343750,30.6283607482910160,50,102,98,80,66,14007,2146953097,2147511259,2147272886,2147461677,2147086528,2146955556,2147655579,2147111232,1124,-2,8,51793
1345132410,5804,291.7200012207031000,18.2637004852294920,36.5871009826660160,235.2348022460937500,146.4613952636718800,18.2637500762939450,30.6053791046142580,51,101,98,81,66,14007,2146951616,2147516754,2147271305,2147459081,2147086080,2146963812,2147655241,2147119323,955,-2,8,2349
1345132513,5806,281.4400024414062500,18.3376007080078120,36.5946998596191400,234.5671997070312500,144.0487976074218800,18.3366603851318360,30.6051292419433600,51,104,98,80,67,14003,2146955602,2147516562,2147273609,2147456877,2147084781,2146957266,2147654692,2147115008,903,-2,8,53707
1345132628,5806,269.7799987792969000,18.3988990783691400,36.6002998352050800,233.5708007812500000,142.0995025634765600,18.3955802917480470,30.6274700164794920,50,103,98,81,67,14002,2146953225,2147513398,2147277549,2147455972,2147089380,2146960731,2147659904,2147121545,629,-2,8,26639
1345132747,5806,258.6900024414062500,18.4755992889404300,36.6053009033203100,231.8126983642578000,139.4561004638672000,18.4754905700683600,30.6774692535400400,50,103,98,81,67,13999,2146951222,2147516662,2147281901,2147458541,2147085540,2146962953,2147658166,2147120036,506,-2,8,29167
1345132886,5808,247.3699951171875000,18.5659008026123050,36.6096992492675800,229.4154052734375000,136.4199066162109400,18.5672893524169920,30.7545890808105470,50,105,99,80,67,14000,2146953408,2147519808,2147290230,2147457206,2147086802,2146965641,2147666669,2147122569,1002,-2,8,4483
1345133015,5808,236.9700012207031200,18.6742992401123050,36.6125984191894500,228.7910003662109400,132.9833984375000000,18.6712207794189450,30.7398796081542970,51,104,98,81,67,14001,2146955821,2147525714,2147308516,2147456749,2147087734,2146968667,2147676598,2147126162,755,-2,8,27377
1345133166,5804,225.2599945068359400,18.8246994018554700,36.6216011047363300,228.1806945800781200,128.0953979492187500,18.8191108703613280,30.7049999237060550,50,103,100,80,67,14001,2146959314,2147542601,2147347328,2147456978,2147086134,2146977042,2147694427,2147129846,373,-2,8,23281
1345133326,5806,213.2299957275390600,18.9563007354736330,36.6240005493164060,228.7245941162109400,123.6604995727539000,18.9533290863037100,30.6193103790283200,50,102,97,82,66,14001,2146958034,2147564928,2147417627,2147455835,2147087232,2146991908,2147732443,2147130678,105,-2,8,42181
1345133449,5806,202.1300048828125000,19.0184993743896500,36.5960998535156250,234.7622070312500000,121.7188034057617200,19.0121097564697270,30.3001403808593750,50,101,97,80,65,14003,2146961161,2147595318,2147492452,2147455140,2147090550,2147017801,2147775634,2147131254,934,-2,8,3511
1345133504,5807,197.2799987792968800,19.0386009216308600,36.5852012634277340,239.2124023437500000,120.9996032714843800,19.0338897705078120,30.0803508758544920,50,105,98,80,66,14002,2146961874,2147604790,2147520137,2147456018,2147092114,2147026057,2147790665,2147130715,716,-2,8,57857
1345133559,5806,192.5299987792968800,19.0802993774414060,36.5839004516601560,241.7093963623047000,119.6177978515625000,19.0757293701171880,29.9462699890136720,50,101,97,81,66,14001,2146965248,2147605668,2147517211,2147456000,2147091693,2147027574,2147789074,2147132370,480,-2,8,16326
1345133635,5804,186.4100036621093800,19.1193008422851560,36.5797004699707000,244.2066040039062500,118.6042022705078100,19.1064300537109380,29.8184108734130860,50,104,98,81,64,14004,2146964150,2147621065,2147544036,2147453174,2147096521,2147033892,2147802486,2147133878,185,-2,8,31001
1345133690,5805,182.2899932861328000,19.1755008697509770,36.5825004577636700,246.1199951171875000,115.7822036743164000,19.1919002532959000,29.6948299407959000,50,103,99,81,65,14002,2146970020,2147637888,2147592118,2147455981,2147097481,2147053449,2147828233,2147133979,362,-2,8,6362
1345133745,5804,178.2400054931640600,19.2187004089355470,36.5831985473632800,246.0634002685547000,115.1364974975586000,19.2114696502685550,29.6890602111816400,50,103,98,81,65,14001,2146972160,2147649398,2147617014,2147454866,2147097609,2147061120,2147848018,2147133933,300,-2,8,64566
1345133800,5806,174.1699981689453000,19.2376995086669920,36.5782012939453100,248.9577026367187500,114.4742965698242200,19.2315292358398440,29.5508594512939450,51,102,98,81,64,14000,2146971995,2147665700,2147650221,2147454646,2147101037,2147074596,2147869760,2147130578,632,-2,8,39090
1345133855,5806,170.1600036621093800,19.2702999114990230,36.5812988281250000,249.1869964599609400,113.2304000854492200,19.2692203521728500,29.5245094299316400,50,104,98,81,65,13997,2146980306,2147687926,2147697974,2147453933,2147102509,2147089188,2147894116,2147138176,233,-2,8,50978
1345133910,5806,166.0800018310547000,19.2898006439209000,36.5814018249511700,248.9369964599609400,112.7740020751953100,19.2830505371093750,29.5299491882324220,51,102,98,81,64,14000,2146981275,2147710226,2147757138,2147455936,2147105645,2147105152,2147925165,2147142464,372,-2,8,53367
1345133988,5806,160.6399993896484400,19.3066997528076170,36.5758018493652340,250.1071014404297000,112.0609970092773400,19.3046607971191400,29.4687004089355470,53,105,98,81,64,13996,2146990180,2147741202,2147827282,2147455076,2147107949,2147127323,2147963913,2147145645,210,-2,8,2009
1345134043,5805,157.1199951171875000,19.3379001617431640,36.5830001831054700,251.2254028320312500,111.2412033081054700,19.3295001983642580,29.4087505340576170,62,110,100,83,64,13989,2146993344,2147755090,2147851739,2147458432,2147111058,2147135533,2147972672,2147143396,3384,-2,8,9954
1345134110,5805,152.8200073242187500,19.3397006988525400,36.5784988403320300,253.3135986328125000,111.0429000854492200,19.3355102539062500,29.3148307800292970,70,116,99,82,64,13978,2147004498,2147790491,2147917595,2147455030,2147112292,2147156297,2148004589,2147151104,2881,-2,8,54612
1345134165,5805,149.1799926757812500,19.3505001068115230,36.5773010253906250,253.5200958251953000,110.5988998413086000,19.3489608764648440,29.3001003265380860,74,118,100,82,63,13965,2147009746,2147814473,2147967597,2147456329,2147110235,2147166957,2148027520,2147148617,2269,-2,8,48252
1345134232,5805,144.6699981689453000,19.3798007965087900,36.5816001892089840,253.3264007568359400,109.7591018676757800,19.3744201660156250,29.2976894378662100,75,113,99,82,65,13973,2147025974,2147851830,2148030198,2147455332,2147119579,2147186816,2148045376,2147149696,1496,-2,8,50722
1345134311,5803,139.6399993896484400,19.3803997039794920,36.5755996704101560,253.2250976562500000,109.6580963134765600,19.3774795532226560,29.3008403778076170,83,115,99,82,64,13968,2147040786,2147905801,2148135478,2147456722,2147132708,2147218139,2148100873,2147151268,1046,-2,8,5787
1345134378,5803,136.0599975585937500,19.4246997833251950,36.5793991088867200,253.2360992431640600,108.2888031005859400,19.4189891815185550,29.2825202941894530,89,116,100,82,64,13961,2147059136,2147967076,2148241270,2147461897,2147136877,2147244534,2148140900,2147154459,590,-2,8,65038
1345134445,5804,132.5200042724609400,19.4360008239746100,36.5816993713378900,253.3211059570312500,107.8836975097656200,19.4312705993652340,29.2738494873046880,88,115,99,83,65,13958,2147081325,2148037312,2148374198,2147463414,2147149970,2147278381,2148195840,2147160704,121,-2,8,23686
1345134524,5805,128.3000030517578000,19.4535999298095700,36.5816993713378900,252.7203063964843800,107.3378982543945300,19.4478206634521500,29.2929496765136720,86,110,98,82,64,13969,2147113901,2148137737,2148558802,2147464448,2147163675,2147331858,2148278482,2147165842,3045,-2,8,493
1345134593,5802,124.6699981689453100,19.4754009246826170,36.5830001831054700,255.4526062011718800,106.4422988891601600,19.4749698638916000,29.1629104614257800,98,114,101,84,66,13962,2147154660,2148254610,2148765796,2147467949,2147178642,2147379318,2148352301,2147170057,2824,-3,8,52408
1345134672,5807,120.6500015258789000,19.5382003784179700,36.5848007202148440,257.6437988281250000,104.5651016235351600,19.5319004058837900,29.0450096130371100,104,115,100,82,67,13954,2147204324,2148376950,2148989933,2147471113,2147203081,2147430107,2148438546,2147178413,2705,-3,9,35278
1345134763,5804,116.5100021362304700,19.5900993347167970,36.5862007141113300,258.2626953125000000,102.8656005859375000,19.5834407806396500,28.9972305297851560,106,118,101,83,67,13948,2147260214,2148518308,2149226834,2147478189,2147219053,2147486400,2148516507,2147184027,2860,-2,8,55430
1345134866,5805,112.7799987792968800,19.6483001708984380,36.5956001281738300,255.0314941406250000,100.9917984008789000,19.6402797698974600,29.1114196777343750,109,119,101,83,64,13937,2147334582,2148700278,2149533915,2147487926,2147249837,2147567049,2148637805,2147192585,2395,-2,8,4022
1345134983,5804,109.2799987792968800,19.7469005584716800,36.6111984252929700,251.0133972167968800,98.0659027099609400,19.7290706634521500,29.2485008239746100,111,124,100,83,65,13933,2147425078,2148890779,2149803355,2147493549,2147298934,2147663030,2148750957,2147206912,2184,-2,8,63225
1345135134,5805,105.3099975585937500,19.8458003997802730,36.6114997863769500,252.0670928955078000,94.5183029174804700,19.8367500305175780,29.1568908691406250,129,131,102,85,66,13912,2147541275,2149128969,2150135149,2147505106,2147344164,2147757275,2148864731,2147215396,2119,-2,8,25767
1345135268,5804,100.8399963378906200,19.9090003967285160,36.6170005798339840,253.3603973388672000,92.4072570800781200,19.9008502960205080,29.0737800598144530,130,134,103,85,66,13893,2147745362,2149549558,2150735424,2147523419,2147426596,2147916498,2149082614,2147238016,2224,-2,9,34169
1345135323,5804,98.3399963378906200,19.9734001159667970,36.6248016357421900,252.8742065429687500,90.3293762207031200,19.9639606475830080,29.0684108734130860,135,135,103,83,66,13888,2147891126,2149847798,2151142710,2147537261,2147471259,2148028214,2149225755,2147250715,2230,-2,8,35208
1345135378,5805,95.8600006103515600,20.0086002349853500,36.6281013488769500,252.2785034179687500,89.1846084594726600,19.9987297058105470,29.0796203613281250,141,133,101,84,66,13887,2148065133,2150181970,2151583360,2147552896,2147544256,2148149147,2149381056,2147267190,2458,-2,9,13859
1345135433,5807,93.3300018310546900,20.0599994659423830,36.6357002258300800,251.3733978271484400,87.5147628784179700,20.0494594573974600,29.0976104736328120,142,135,104,84,65,13876,2148266989,2150562441,2152080777,2147574528,2147616896,2148292059,2149543890,2147284461,2723,-2,9,4476
1345135488,5804,90.7399978637695300,20.0955009460449220,36.6301002502441400,252.1201934814453000,86.2828598022461000,20.0868892669677730,29.0494804382324220,150,131,103,84,66,13873,2148490550,2150974921,2152603538,2147595035,2147704868,2148439378,2149729234,2147300928,3015,-2,8,50147
1345135545,5803,88.0599975585937500,20.1597995758056640,36.6357994079589840,252.3450012207031200,84.1846237182617200,20.1506690979003900,29.0128307342529300,147,131,101,84,65,13873,2148734226,2151420681,2153156388,2147621705,2147793718,2148590043,2149913289,2147326372,2774,-2,9,11554
1345135600,5806,85.5699996948242200,20.2455005645751950,36.6334991455078100,252.1766052246093800,82.4401168823242200,20.2036991119384770,28.9981002807617200,160,135,102,84,65,13854,2149001280,2151905142,2153755236,2147647076,2147887963,2148750080,2150096649,2147346916,2560,-2,8,10243
1345135655,5806,83.3199996948242200,20.3404998779296880,36.6428985595703100,252.0845947265625000,78.5551910400390600,20.3218402862548830,28.9526290893554700,166,136,104,85,65,13838,2149255990,2152380699,2154313325,2147676644,2147965796,2148888521,2150256704,2147364333,2217,-2,8,37484
1345135710,5806,81.5599975585937500,20.3673000335693360,36.6444015502929700,252.5547027587890600,77.2538604736328100,20.3614292144775400,28.9156398773193360,179,133,103,86,64,13822,2149510729,2152833773,2154816320,2147700050,2148056557,2149012077,2150409298,2147382610,1498,-2,9,18801
1345135765,5806,80.0800018310546900,20.4078006744384770,36.6502990722656250,252.9965972900390600,76.0097579956054700,20.3992805480957030,28.8808002471923830,180,136,105,87,66,13816,2149778496,2153318637,2155319698,2147718098,2148135798,2149142281,2150549110,2147400841,1179,-2,9,46379
1345135867,5803,77.3099975585937500,20.5995006561279300,36.6615982055664060,252.4624023437500000,70.0210723876953100,20.5815601348876950,28.8278503417968750,155,134,104,86,66,13815,2150612690,2154763629,2156755483,2147784054,2148401947,2149577280,2150999990,2147451830,1000,-2,8,33052
1345135922,5805,75.1800003051757800,20.6811008453369140,36.6619987487793000,252.9622955322265600,66.9831237792968800,20.6740894317626950,28.7678108215332030,163,135,105,88,64,13801,2151347035,2155995629,2157940434,2147846582,2148651108,2149981092,2151422189,2147505435,593,-2,9,31626
1345135977,5806,72.9499969482421900,20.7724990844726560,36.6683006286621100,253.3771057128906200,64.0417327880859400,20.7637100219726560,28.7128696441650400,152,133,104,86,65,13794,2152162230,2157313161,2159198153,2147920420,2148950253,2150467776,2151891995,2147565705,654,-2,8,44931
1345136032,5805,70.6900024414062500,20.8104991912841800,36.6613998413085940,254.9967041015625000,62.6141204833984400,20.8072204589843750,28.6253604888916000,123,127,103,85,66,13835,2153062729,2158682322,2160496685,2148013878,2149308827,2151058596,2152487369,2147633865,748,-2,8,30589
1345136087,5807,68.4499969482421900,20.8803005218505860,36.6600990295410160,255.9100036621093800,60.2192611694335940,20.8802299499511720,28.5564994812011720,103,125,103,86,65,13852,2154093330,2160162166,2161840146,2148120475,2149750683,2151767981,2153118546,2147712594,829,-2,8,62983
1345136142,5805,66.4599990844726600,21.0445003509521500,36.6701011657714840,256.3431091308594000,55.0794105529785160,21.0370006561279300,28.4736194610595700,101,124,104,84,64,13857,2155207634,2161663542,2163155821,2148230061,2150234752,2152513618,2153757339,2147789019,647,-2,8,18002
1345136221,5806,63.7900009155273440,21.2486991882324220,36.6725997924804700,256.2471923828125000,49.6805191040039060,21.2018108367919920,28.4099197387695300,87,125,102,84,65,13868,2157307072,2164302098,2165329673,2148429705,2151176539,2153896621,2154882486,2147927424,365,-2,8,34305
1345136276,5806,61.5900001525878900,21.3540992736816400,36.6674995422363300,256.8566894531250000,44.5788307189941400,21.3576507568359380,28.3203907012939450,84,122,105,85,64,13869,2159135533,2166490514,2167074422,2148599442,2152045906,2155107200,2155830180,2148040082,908,-2,8,45786
1345136331,5801,59.4900016784668000,21.5648994445800780,36.6614990234375000,258.4234924316406000,38.6240806579589840,21.5397205352783200,28.1804409027099600,80,124,102,84,63,13873,2160937664,2168544256,2168674340,2148785060,2152923748,2156277970,2156686793,2148152246,1114,-2,9,64193
1345136386,5802,57.7000007629394500,21.6630992889404300,36.6586990356445300,259.3725891113281000,35.4232597351074200,21.6376495361328120,28.1012592315673830,79,123,103,86,64,13863,2162518838,2170262253,2169987474,2148943195,2153716818,2157294829,2157420342,2148249609,2041,-2,8,14552
1345136441,5804,56.0800018310546900,21.7339000701904300,36.6651000976562500,259.9410095214844000,33.3758506774902340,21.7003192901611330,28.0522308349609380,77,122,103,85,64,13870,2164170724,2172066733,2171403693,2149127826,2154544667,2158340836,2158179538,2148356132,2850,-2,9,22143
1345136618,5803,50.2000007629394500,22.1021995544433600,36.6353988647460940,259.6440124511719000,21.6975593566894530,22.0581703186035160,27.9199104309082030,71,127,103,86,61,13857,2171092553,2179227803,2177019547,2150044690,2158378130,2162922752,2161479771,2148815396,3344,-2,8,29000
1345136651,5805,48.9399986267089840,22.1130008697509770,36.6184997558593750,262.1957092285156000,20.3109607696533200,22.1007099151611330,27.7980308532714840,70,129,105,85,60,13848,2172596361,2180720987,2178165174,2150247232,2159374582,2164031561,2162195318,2148927524,3265,-2,9,19315
1345136684,5805,47.8199996948242200,22.1669006347656250,36.5862998962402340,265.6004028320312500,18.4119606018066400,22.1589794158935550,27.6367301940917970,71,128,105,86,62,13853,2173993956,2182124105,2179318957,2150489106,2160426870,2165198884,2162971958,2149041664,3277,-2,8,48558
1345136753,5808,45.9099998474121100,22.3125000000000000,36.5704994201660160,275.2836914062500000,13.9739198684692380,22.2952404022216800,27.2017192840576170,70,127,107,87,60,13835,2176203318,2184359716,2181198290,2150891465,2162348434,2167262180,2164370112,2149235666,2677,-3,9,5138
1345136847,5806,43.6399993896484400,22.4785003662109380,36.5620002746582000,279.1499938964844000,7.7831358909606930,22.4854793548584000,26.9790306091308600,66,127,106,88,58,13839,2180014125,2188254034,2184525504,2151635099,2165632585,2170764178,2166639286,2149591515,2529,-1,8,1117
1345136904,5802,41.5699996948242200,22.7212009429931640,36.5563011169433600,275.3959960937500000,0.1493901014328003,22.7203598022460940,27.0295600891113280,68,128,107,86,58,13846,2183881005,2192145682,2187776256,2152394157,2168726454,2174045229,2168913755,2149942948,3313,-3,8,13409
1345136961,5805,39.8499984741210940,22.9018001556396500,36.5374984741210940,275.7886962890625000,-4.9221038818359375,22.8765907287597660,26.9532108306884770,67,129,105,87,61,13843,2186890258,2195270582,2190545133,2153098340,2171327634,2176823149,2170795986,2150253696,2488,-2,9,333
1345137150,5808,37.6500015258789060,23.2450008392334000,36.5134010314941400,276.2489013671875000,-16.1153507232666000,23.2219390869140620,26.8004093170166000,66,124,105,87,60,13843,2195495168,2204631286,2198984658,2155056374,2178696539,2184754514,2176347346,2151134692,1905,-2,9,39721
1345137219,5804,35.7299995422363300,23.5084991455078120,36.4889984130859400,275.0616149902344000,-24.1821193695068360,23.4713001251220700,26.7484703063964840,65,127,104,87,60,13850,2200668708,2210199204,2204143698,2156573504,2183661074,2189944384,2179838893,2151751268,1912,-3,8,37885
1345137444,5807,33.9599990844726560,23.7024002075195300,36.4771003723144500,272.6957092285156000,-31.6148395538330080,23.7014198303222660,26.7497596740722660,64,127,106,86,57,13834,2209735149,2220367872,2213663808,2159075328,2191619702,2198497508,2185969426,2152815012,983,-2,8,56623
1345137501,5806,32.7200012207031250,23.7467002868652340,36.4730987548828100,272.1008911132812500,-33.1371612548828100,23.7486000061035160,26.7542304992675780,63,125,105,88,59,13846,2213718107,2224385545,2217285659,2160354368,2196790720,2203567360,2189174372,2153355209,519,-3,9,3318
1345137690,5800,30.8799991607666000,24.2572994232177730,36.4394989013671900,267.1492919921875000,-48.8139801025390600,24.2353191375732420,26.7582607269287100,63,125,104,85,57,13851,2220167250,2231147657,2223461915,2162595099,2204740809,2211512219,2194322614,2154251821,1359,-3,8,10890